Levaldigi, Italy

4:51 AM CEST on June 23, 2017 (GMT +0200)
Levaldigi

Weather History for LIMZ - March, 2013

Change the Weather History Date:

Monday, March 11, 2013

  Actual Average (LIMK) Record (LIMK)
Temperature  
Mean Temperature 44 °F -  
Max Temperature 55 °F 51 °F 59 °F (1997)
Min Temperature 32 °F 39 °F 28 °F (2004)
Degree Days  
Heating Degree Days 22    
Moisture  
Dew Point 41 °F    
Average Humidity 82    
Maximum Humidity 100    
Minimum Humidity 62    
Precipitation  
Precipitation 0.00 in - - ()
Sea Level Pressure  
Sea Level Pressure 29.48 in    
Wind  
Wind Speed 3 mph ()    
Max Wind Speed 6 mph    
Max Gust Speed -    
Visibility 5.5 miles    
Events      
Averages and records for this station are not official NWS values.
T = Trace of Precipitation, MM = Missing Value Source: Averaged Metar Reports

Daily Weather History Graph

Daily Weather History Graph

Search for Another Location

Airport or City:

Trip Planner

Search our weather history database for the weather conditions in past years. The results will help you decide how hot, cold, wet, or windy it might be!

Date:

Astronomy

Mar. 11, 2013 Rise Set
Actual Time 6:49 AM CET 6:30 PM CET
Civil Twilight 6:20 AM CET 6:59 PM CET
Nautical Twilight 5:46 AM CET 7:33 PM CET
Astronomical Twilight 5:12 AM CET 8:07 PM CET
Moon 6:13 AM CET (3/11) 6:27 PM CET (3/11)
Length of Visible Light 12h 39m
Length of Day
11h 41m
Waning Crescent, 0% of the Moon is Illuminated
Mar 11
Waning Crescent
Mar 11
New
Mar 19
First Quarter
Mar 27
Full
Apr 3
Last Quarter

Hourly Weather History & Observations

Time (CET) Temp. Windchill Dew Point Humidity Pressure Visibility Wind Dir Wind Speed Gust Speed Precip Events Conditions
6:00 AM 33.8 °F 28.6 °F 32.0 °F 93% 29.50 in 6.2 mi WSW 5.8 mph - N/A   Partly Cloudy
6:50 AM 32.0 °F 28.7 °F 32.0 °F 100% 29.50 in 6.2 mi West 3.5 mph - N/A   Partly Cloudy
7:50 AM 33.8 °F 30.8 °F 33.8 °F 100% 29.50 in 6.2 mi SSW 3.5 mph - N/A   Mostly Cloudy
8:50 AM 41.0 °F - 39.2 °F 93% 29.50 in 6.2 mi Calm Calm - N/A   Mostly Cloudy
9:50 AM 44.6 °F - 39.2 °F 81% 29.50 in 6.2 mi Calm Calm - N/A   Mostly Cloudy
10:50 AM 48.2 °F - 42.8 °F 82% 29.50 in 5.0 mi Calm Calm - N/A   Partly Cloudy
11:50 AM 51.8 °F - 44.6 °F 76% 29.50 in 5.0 mi NNE 3.5 mph - N/A   Scattered Clouds
12:50 PM 53.6 °F - 44.6 °F 72% 29.50 in 5.0 mi East 4.6 mph - N/A   Scattered Clouds
1:50 PM 53.6 °F - 42.8 °F 67% 29.47 in 5.0 mi NNE 5.8 mph - N/A   Scattered Clouds
2:50 PM 55.4 °F - 42.8 °F 63% 29.47 in 6.2 mi NNE 4.6 mph - N/A   Scattered Clouds
3:50 PM 53.6 °F - 41.0 °F 62% 29.44 in 6.2 mi North 3.5 mph - N/A   Scattered Clouds
4:50 PM 53.6 °F - 44.6 °F 72% 29.44 in 5.0 mi WNW 4.6 mph - N/A   Scattered Clouds
5:50 PM 51.8 °F - 42.8 °F 71% 29.44 in 4.3 mi WNW 4.6 mph - N/A   Mostly Cloudy
6:50 PM 50.0 °F - 42.8 °F 76% 29.47 in 4.3 mi NNW 4.6 mph - N/A   Mostly Cloudy
7:50 PM 48.2 °F - 42.8 °F 82% 29.47 in 4.3 mi Calm Calm - N/A   Mostly Cloudy
8:50 PM 46.4 °F 44.3 °F 42.8 °F 87% 29.47 in 4.3 mi SE 4.6 mph - N/A   Mostly Cloudy
9:50 PM 44.6 °F - 42.8 °F 93% 29.50 in 6.2 mi Calm Calm - N/A   Mostly Cloudy
10:50 PM 44.6 °F 43.1 °F 42.8 °F 93% 29.50 in 6.2 mi Variable 3.5 mph - N/A   Mostly Cloudy
11:50 PM 42.8 °F 41.1 °F 41.0 °F 93% 29.50 in 6.2 mi Variable 3.5 mph - N/A   Mostly Cloudy